Location: Arcizac
(43.0933°N, 0.0112°E)
Time: 04:34:32
(UTC+00:00)

CZ-4C R/B - Pass Details

Date: 14 December 2019
Orbit: 646 x 1356 km, 63.4° (Epoch: 23 January)

Event Time Altitude Azimuth Distance (km) Brightness Sun altitude
Rises 19:28:35 0° 232° (SW) 3,067 5.9 -32.5°
Reaches altitude 10° 19:30:50 10° 238° (WSW) 2,215 5.0 -32.9°
Enters shadow 19:34:33 42° 275° (W) 1,108 3.1 -33.6°
